FW4844 Weather Reports


Display with metric or nautical units.
time (UTC)temp
F
wind
direction
speed
MPH
gust
MPH
rain 1hr
in
rain 24hr
in
rain mn
in
humidity
%
barometer
mb
20260506051358 49 269 3.0 7.0 0.03 0.22 0.04 97 1007.0
20260506051120 49 244 3.0 6.0 0.03 0.22 0.04 97 1007.0
20260506050358 49 256 3.0 7.0 0.04 0.22 0.04 97 1006.9
20260506044858 49 277 3.0 8.0 0.03 0.21 0.03 96 1007.0
20260506044357 49 265 3.0 8.0 0.03 0.21 0.03 96 1007.5
20260506043852 49 262 3.0 7.0 0.03 0.21 0.03 96 1007.1
20260506043351 49 261 2.0 7.0 0.03 0.21 0.03 96 1007.3
20260506042852 49 325 2.0 8.0 0.03 0.21 0.03 96 1007.0
20260506042352 49 252 3.0 8.0 0.03 0.21 0.03 96 1007.4
20260506041849 49 281 3.0 8.0 0.02 0.20 0.02 96 1007.4
20260506041350 49 258 3.0 8.0 0.02 0.19 0.01 96 1007.4
20260506040850 49 257 3.0 8.0 0.02 0.19 0.01 96 1007.5
20260506040350 49 259 2.0 8.0 0.01 0.18 0.00 96 1007.4
20260506040117 49 315 1.0 3.0 0.01 0.18 0.18 96 1007.0
20260506035620 49 319 1.0 3.0 0.01 0.18 0.18 96 1006.9
20260506035112 49 319 1.0 3.0 0.01 0.18 0.18 95 1007.0
20260506034347 49 338 2.0 6.0 0.02 0.18 0.18 95 1006.7
20260506033845 49 338 2.0 6.0 0.02 0.18 0.18 95 1006.6
20260506033341 49 317 2.0 5.0 0.02 0.18 0.18 95 1007.2
20260506032839 50 26 2.0 6.0 0.02 0.18 0.18 94 1006.9
20260506032340 50 315 3.0 6.0 0.02 0.18 0.18 94 1006.9
20260506031840 50 31 2.0 4.0 0.02 0.18 0.18 95 1006.6
20260506031339 50 30 1.0 4.0 0.01 0.17 0.17 94 1006.9
20260506030840 50 269 2.0 6.0 0.02 0.17 0.17 94 1007.2
20260506030338 50 263 2.0 6.0 0.02 0.17 0.17 93 1007.1
20260506025838 51 267 1.0 4.0 0.02 0.17 0.17 93 1007.0
20260506025555 51 263 3.0 9.0 0.02 0.17 0.17 92 1006.9
20260506024838 51 247 3.0 9.0 0.02 0.17 0.17 92 1007.1
20260506024556 51 262 5.0 14.0 0.01 0.16 0.17 92 1007.2
20260506023834 52 246 6.0 15.0 0.01 0.16 0.16 91 1006.8
20260506023608 52 236 6.0 15.0 0.01 0.16 0.16 91 1007.0
20260506022833 53 338 6.0 17.0 0.01 0.16 0.16 91 1006.6
20260506022334 53 331 7.0 17.0 0.01 0.16 0.16 91 1006.5
20260506021335 54 234 7.0 17.0 0.01 0.16 0.16 92 1006.5
20260506020834 54 287 7.0 17.0 0.00 0.15 0.15 92 1006.4
20260506020551 55 265 6.0 17.0 0.00 0.15 0.15 94 1006.1
20260506015833 55 272 5.0 13.0 0.00 0.15 0.15 94 1006.0
20260506015331 55 246 5.0 13.0 0.00 0.15 0.15 95 1005.9
20260506014830 55 240 4.0 9.0 0.00 0.15 0.15 95 1005.8
20260506014329 55 267 4.0 8.0 0.00 0.15 0.15 95 1005.8
20260506013330 56 254 4.0 10.0 0.00 0.15 0.15 94 1006.0
20260506012828 56 256 4.0 10.0 0.00 0.15 0.15 94 1005.9
20260506012328 56 240 3.0 9.0 0.00 0.15 0.15 94 1005.7
20260506011828 56 268 2.0 9.0 0.01 0.15 0.15 94 1005.5
20260506011327 56 250 2.0 9.0 0.01 0.15 0.15 95 1005.7
20260506010827 56 242 3.0 9.0 0.01 0.15 0.15 95 1005.7
20260506010328 56 278 4.0 10.0 0.01 0.15 0.15 95 1005.6
20260506005828 56 286 5.0 12.0 0.01 0.15 0.15 95 1005.8
20260506005324 56 221 4.0 12.0 0.01 0.15 0.15 95 1005.7
20260506004824 56 254 3.0 8.0 0.01 0.15 0.15 95 1005.7
20260506004323 55 261 3.0 9.0 0.01 0.15 0.15 95 1005.7
20260506003824 55 284 4.0 9.0 0.01 0.15 0.15 95 1005.6
20260506003323 55 272 3.0 8.0 0.01 0.15 0.15 95 1005.4
20260506002824 55 257 2.0 7.0 0.01 0.15 0.15 95 1005.3
20260506002324 56 144 2.0 7.0 0.01 0.15 0.15 95 1004.4
20260506001824 56 277 2.0 7.0 0.00 0.14 0.14 95 1004.8
20260506001324 55 254 1.0 4.0 0.00 0.14 0.14 94 1005.0
20260506000823 56 236 1.0 4.0 0.00 0.14 0.14 94 1004.8
20260506000324 56 233 1.0 4.0 0.00 0.14 0.14 93 1004.7
20260505235823 56 231 2.0 5.0 0.00 0.14 0.14 93 1004.7
20260505235321 56 230 2.0 5.0 0.00 0.14 0.14 92 1004.7
20260505234821 56 236 2.0 5.0 0.00 0.14 0.14 92 1004.7
20260505234320 57 252 2.0 5.0 0.00 0.14 0.14 92 1004.6
20260505234038 57 244 3.0 7.0 0.00 0.14 0.14 91 1004.7
20260505233537 57 238 2.0 7.0 0.00 0.14 0.14 91 1004.5
20260505232817 57 253 2.0 5.0 0.00 0.14 0.14 90 1004.2
20260505232318 57 240 2.0 5.0 0.00 0.14 0.14 90 1004.1
20260505231817 58 237 3.0 6.0 0.00 0.14 0.14 89 1004.1
20260505231318 58 216 4.0 7.0 0.00 0.14 0.14 88 1004.2
20260505230817 58 227 4.0 8.0 0.00 0.14 0.14 88 1004.1
20260505230318 58 215 5.0 8.0 0.00 0.14 0.14 88 1004.2
20260505225817 58 232 5.0 8.0 0.00 0.14 0.14 88 1004.1
20260505225317 58 221 5.0 8.0 0.00 0.14 0.14 88 1004.2
20260505224817 58 208 4.0 9.0 0.00 0.14 0.14 88 1004.2
20260505224316 58 230 5.0 10.0 0.00 0.14 0.14 88 1004.0
20260505224036 58 226 5.0 10.0 0.00 0.14 0.14 87 1004.0
20260505223314 59 217 6.0 11.0 0.00 0.14 0.14 87 1003.9
20260505223032 59 229 5.0 11.0 0.00 0.14 0.14 87 1004.0
20260505222311 59 214 6.0 11.0 0.00 0.14 0.14 88 1003.9
20260505221813 59 240 6.0 11.0 0.00 0.14 0.14 89 1004.0
20260505221312 58 215 6.0 11.0 0.00 0.14 0.14 88 1003.8
20260505220806 58 231 5.0 10.0 0.00 0.14 0.14 88 1003.8
20260505220300 58 198 5.0 10.0 0.00 0.14 0.14 89 1003.8
20260505215750 58 221 5.0 10.0 0.00 0.14 0.14 89 1003.6
20260505215244 58 273 5.0 11.0 0.00 0.14 0.14 89 1003.6
20260505214734 58 215 5.0 16.0 0.00 0.14 0.14 89 1003.5
20260505214227 58 209 7.0 16.0 0.00 0.14 0.14 89 1003.7
20260505213720 58 226 8.0 18.0 0.01 0.14 0.14 90 1003.7
20260505213210 58 200 9.0 18.0 0.01 0.14 0.14 90 1003.7
20260505212704 59 207 9.0 18.0 0.02 0.14 0.14 91 1003.7
20260505211648 59 227 8.0 17.0 0.03 0.14 0.14 92 1003.7
20260505211143 58 236 7.0 17.0 0.07 0.14 0.14 93 1003.7
20260505210636 58 221 7.0 11.0 0.10 0.14 0.14 93 1003.6
20260505210127 57 246 7.0 13.0 0.11 0.14 0.14 93 1003.6
20260505205620 57 240 7.0 14.0 0.11 0.14 0.14 92 1003.5
20260505205115 58 241 7.0 14.0 0.11 0.14 0.14 91 1003.5
20260505204604 58 212 7.0 14.0 0.11 0.14 0.14 90 1003.5
20260505204058 58 235 9.0 20.0 0.11 0.14 0.14 90 1003.4
20260505203552 58 257 10.0 23.0 0.10 0.13 0.13 88 1003.5
20260505203042 58 236 9.0 23.0 0.10 0.13 0.13 88 1003.4
20260505202536 58 230 8.0 20.0 0.09 0.12 0.12 88 1003.4
20260505202030 58 223 7.0 15.0 0.08 0.11 0.11 86 1003.1
20260505201520 60 250 7.0 19.0 0.07 0.10 0.10 81 1003.1
20260505201014 63 266 7.0 19.0 0.03 0.06 0.06 74 1002.8
20260505200508 64 251 8.0 17.0 0.00 0.03 0.03 65 1002.7
20260505195457 64 257 5.0 14.0 0.00 0.03 0.03 72 1002.4
20260505194955 64 233 6.0 15.0 0.00 0.03 0.03 77 1002.1
20260505194453 64 227 7.0 15.0 0.00 0.03 0.03 76 1002.1
20260505193951 64 230 6.0 13.0 0.01 0.03 0.03 75 1001.8
20260505193451 64 200 6.0 17.0 0.02 0.03 0.03 78 1001.8
20260505192951 64 226 7.0 17.0 0.02 0.03 0.03 77 1001.9
20260505192451 65 227 6.0 13.0 0.02 0.03 0.03 74 1001.9
20260505191951 66 218 6.0 12.0 0.02 0.03 0.03 66 1001.9
20260505191719 66 254 8.0 16.0 0.02 0.03 0.03 64 1001.8
20260505190951 66 248 8.0 17.0 0.02 0.03 0.03 67 1002.0
20260505190451 67 232 7.0 17.0 0.02 0.03 0.03 66 1002.0
20260505185951 66 232 7.0 15.0 0.02 0.03 0.03 72 1002.1
20260505185451 63 267 10.0 25.0 0.02 0.03 0.03 79 1002.1
20260505184950 62 235 12.0 27.0 0.02 0.03 0.03 77 1002.0
20260505184715 63 227 13.0 27.0 0.02 0.03 0.03 74 1002.4
20260505183943 67 234 12.0 27.0 0.01 0.02 0.02 63 1002.2
20260505183442 71 168 13.0 27.0 0.00 0.01 0.01 47 1002.0
20260505182943 71 238 14.0 27.0 0.00 0.01 0.01 45 1001.5
20260505182708 71 200 14.0 26.0 0.00 0.01 0.01 45 1001.3
20260505181942 71 250 17.0 30.0 0.00 0.01 0.01 45 1001.3
20260505181443 72 242 16.0 30.0 0.00 0.01 0.01 44 1001.3
20260505180943 73 240 15.0 27.0 0.00 0.01 0.01 44 1001.1
20260505180443 72 209 15.0 30.0 0.00 0.01 0.01 44 1001.5
20260505175943 73 217 17.0 31.0 0.00 0.01 0.01 43 1001.5
20260505175443 73 222 19.0 33.0 0.00 0.01 0.01 42 1001.3
20260505174943 73 242 17.0 37.0 0.00 0.01 0.01 43 1001.3
20260505174443 72 211 15.0 37.0 0.00 0.01 0.01 43 1001.1
20260505173943 72 236 13.0 26.0 0.00 0.01 0.01 44 1001.2
20260505173442 72 220 14.0 28.0 0.00 0.01 0.01 44 1001.1
20260505172943 73 233 17.0 28.0 0.00 0.01 0.01 42 1001.1
20260505172443 74 242 16.0 28.0 0.00 0.01 0.01 42 1001.3
20260505171941 74 222 15.0 29.0 0.00 0.01 0.01 42 1001.2
20260505171441 74 202 14.0 29.0 0.00 0.01 0.01 42 1001.3
20260505170941 74 243 13.0 27.0 0.00 0.01 0.01 42 1001.3
20260505170440 75 225 14.0 26.0 0.00 0.01 0.01 41 1001.3
20260505165941 75 236 16.0 32.0 0.00 0.01 0.01 41 1001.3
20260505165441 74 213 18.0 34.0 0.00 0.01 0.01 41 1001.2
20260505164941 74 234 14.0 34.0 0.00 0.01 0.01 42 1001.4
20260505164441 74 240 12.0 28.0 0.00 0.01 0.01 43 1001.5
20260505163941 73 244 14.0 29.0 0.00 0.01 0.01 44 1001.5
20260505163441 73 217 15.0 29.0 0.00 0.01 0.01 44 1001.5
20260505163200 74 230 13.0 29.0 0.00 0.01 0.01 43 1001.7
20260505162441 74 223 14.0 25.0 0.00 0.01 0.01 44 1001.7
20260505161934 73 259 16.0 23.0 0.00 0.01 0.01 44 1001.9
20260505161652 73 181 15.0 24.0 0.00 0.01 0.01 44 1001.9
20260505160934 74 247 15.0 25.0 0.00 0.01 0.01 44 1002.0
20260505160431 72 213 14.0 28.0 0.00 0.01 0.01 47 1002.0
20260505152932 72 181 10.0 22.0 0.00 0.01 0.01 51 1002.2
20260505152431 71 179 11.0 21.0 0.00 0.01 0.01 50 1002.4
20260505151931 70 228 12.0 23.0 0.00 0.01 0.01 51 1002.4
20260505151431 70 251 10.0 23.0 0.00 0.01 0.01 51 1002.4
20260505150930 70 213 9.0 21.0 0.00 0.01 0.01 52 1002.7
20260505150431 69 198 11.0 21.0 0.00 0.01 0.01 54 1002.8
20260505140430 66 217 10.0 20.0 0.00 0.01 0.01 61 1003.7
20260505130145 60 238 8.0 15.0 0.00 0.01 0.01 72 1003.9
20260505124918 59 215 8.0 18.0 0.00 0.01 0.01 71 1003.9
20260505124418 60 215 8.0 16.0 0.00 0.01 0.01 70 1003.8
20260505123918 60 207 6.0 14.0 0.00 0.01 0.01 74 1003.8
20260505123419 59 244 5.0 14.0 0.00 0.01 0.01 73 1003.9
20260505122918 58 207 5.0 10.0 0.00 0.01 0.01 75 1003.9
20260505122418 58 214 4.0 9.0 0.00 0.01 0.01 76 1003.8
20260505121920 57 211 5.0 9.0 0.00 0.01 0.01 76 1003.7
20260505121419 56 223 5.0 10.0 0.00 0.01 0.01 77 1003.8
20260505120919 56 226 4.0 10.0 0.00 0.01 0.01 80 1003.9
20260505120417 55 220 4.0 7.0 0.00 0.01 0.01 81 1003.8
20260505120136 54 198 3.0 7.0 0.00 0.01 0.01 84 1003.8
20260505115637 53 223 3.0 7.0 0.00 0.01 0.01 87 1003.8
20260505115142 53 223 3.0 7.0 0.00 0.01 0.01 87 1003.9
20260505114412 52 223 3.0 7.0 0.00 0.01 0.01 90 1003.8
20260505113913 51 231 2.0 7.0 0.01 0.01 0.01 93 1003.9
20260505113412 50 218 1.0 6.0 0.01 0.01 0.01 95 1003.7
20260505112915 50 215 0.0 2.0 0.01 0.01 0.01 94 1003.8
20260505112412 49 215 1.0 3.0 0.01 0.01 0.01 94 1003.7
20260505111910 49 215 1.0 4.0 0.01 0.01 0.01 94 1003.7
20260505111408 49 207 2.0 4.0 0.01 0.01 0.01 93 1003.7
20260505110906 49 205 2.0 5.0 0.01 0.01 0.01 94 1003.5
20260505110406 49 209 2.0 5.0 0.01 0.01 0.01 94 1003.6
20260505101317 49 238 2.0 5.0 0.00 0.00 0.00 87 1003.8
20260505100811 49 238 2.0 4.0 0.00 0.00 0.00 88 1003.7
20260505100305 48 238 1.0 4.0 0.00 0.00 0.00 88 1003.7
20260505095755 48 264 1.0 2.0 0.00 0.00 0.00 89 1003.7
20260505095249 48 265 1.0 2.0 0.00 0.00 0.00 89 1003.6
20260505095004 48 265 1.0 2.0 0.00 0.00 0.00 88 1003.6
20260505094233 48 265 1.0 2.0 0.00 0.00 0.00 89 1003.6
20260505093221 49 266 0.0 2.0 0.00 0.00 0.00 87 1003.5
20260505092713 49 266 1.0 3.0 0.00 0.00 0.00 85 1003.5
20260505092205 50 266 1.0 3.0 0.00 0.00 0.00 83 1003.5
20260505091915 51 255 2.0 4.0 0.00 0.00 0.00 78 1003.6
20260505091149 52 245 2.0 6.0 0.00 0.00 0.00 74 1003.7
20260505090643 52 231 3.0 8.0 0.00 0.00 0.00 72 1003.9
20260505090142 52 259 3.0 8.0 0.00 0.00 0.00 72 1003.9
20260505085627 52 229 3.0 5.0 0.00 0.00 0.00 72 1003.9
20260505085121 51 224 3.0 7.0 0.00 0.00 0.00 72 1003.8
20260505084615 51 223 4.0 7.0 0.00 0.00 0.00 73 1003.9
20260505084110 50 212 3.0 7.0 0.00 0.00 0.00 74 1003.9
20260505083610 49 221 2.0 7.0 0.00 0.00 0.00 77 1003.9
20260505083110 48 308 1.0 3.0 0.00 0.00 0.00 79 1003.9
20260505082608 48 313 1.0 4.0 0.00 0.00 0.00 79 1003.9
20260505082108 48 313 1.0 4.0 0.00 0.00 0.00 79 1003.9
20260505081608 49 209 1.0 3.0 0.00 0.00 0.00 79 1003.9
20260505081106 49 209 1.0 3.0 0.00 0.00 0.00 78 1003.8
20260505080604 49 209 1.0 3.0 0.00 0.00 0.00 77 1003.8
20260505075601 49 210 2.0 4.0 0.00 0.00 0.00 78 1004.0
20260505075058 49 213 1.0 4.0 0.00 0.00 0.00 78 1003.9
20260505074558 48 214 2.0 4.0 0.00 0.00 0.00 79 1003.9
20260505074057 48 213 2.0 5.0 0.00 0.00 0.00 78 1003.9
20260505073556 48 214 3.0 5.0 0.00 0.00 0.00 79 1003.7
20260505073329 47 205 2.0 5.0 0.00 0.01 0.00 79 1003.7
20260505072824 46 202 2.0 4.0 0.00 0.01 0.00 80 1003.7
20260505072052 46 202 2.0 4.0 0.00 0.01 0.00 79 1003.7
20260505071552 47 205 2.0 4.0 0.00 0.01 0.00 79 1003.7
20260505071053 47 209 2.0 4.0 0.00 0.01 0.00 78 1003.7
20260505070820 47 210 1.0 4.0 0.00 0.01 0.00 78 1003.7
20260505070052 47 211 1.0 3.0 0.00 0.01 0.00 77 1003.7
20260505065550 48 212 1.0 4.0 0.00 0.01 0.00 76 1003.8
20260505065050 49 212 1.0 4.0 0.00 0.01 0.00 75 1003.8
20260505064047 50 214 3.0 5.0 0.00 0.01 0.00 71 1003.8
20260505063546 50 215 3.0 5.0 0.00 0.01 0.00 70 1003.9
20260505063046 50 215 3.0 6.0 0.00 0.01 0.00 70 1003.9
20260505062545 50 207 3.0 6.0 0.00 0.01 0.00 70 1003.8
20260505061546 51 219 4.0 8.0 0.00 0.01 0.00 68 1003.9
20260505061046 51 225 3.0 7.0 0.00 0.01 0.00 68 1003.9
20260505060540 52 213 3.0 7.0 0.00 0.01 0.00 67 1003.8
20260505060038 52 209 3.0 6.0 0.00 0.01 0.00 67 1003.8
20260505055538 52 220 4.0 8.0 0.00 0.01 0.00 66 1003.9
20260505055036 52 192 4.0 8.0 0.00 0.01 0.00 66 1003.9
20260505054759 52 213 4.0 10.0 0.00 0.01 0.00 66 1003.8
20260505054035 52 212 4.0 10.0 0.00 0.01 0.00 66 1003.9
20260505053536 52 220 5.0 13.0 0.00 0.01 0.00 66 1003.8